SCP
0 0 0 0 0 0 0 0 0 0 0 0 0 0 0 0 0 0 0 0 0 0 0 0 0 0 0 0 0 0 0 0 0 0 0 0 0 0 0 0 0 0 0 0
0 0 0 0 0 0 0 0 0 0 0 0 0 0 0 0 0 0 0 0 0 0 0 0 0 0 0 0 0 0 0 0 0 0 0 0 0 0 0 0 0 0 0 0
0 0 0 0 0 0 0 0 0 0 0 0 0 0 0 0 0 0 0 0 0 0 0 0 0 0 0 0 0 0 0 0 0 0 0 0 0 0 0 0 0 0 0 0
0 0 0 0 0 0 0 0 0 0 0 0 0 0 0 0 0 0 0 0 0 0 0 0 0 0 0 0 0 0 0 0 0 0 0 0 0 0 0 0 0 0 0 0
0 0 0 0 0 0 0 0 0 0 0 0 0 0 0 0 0 0 0 0 0 0 0 0 0 0 0 0 0 0 0 0 0 0 0 0 -0 -0 -0 -0 0 0 0 0
0 0 0 0 0 0 0 0 0 0 0 0 0 0 0 0 0 0 0 0 0 0 0 0 0 0 0 0 0 0 0 0 0 0 -0 -0 -0 -0 0 0 0 0 0 0
0 0 0 0 0 0 0 0 0 0 0 0 0 0 0 0 0 0 0 0 0 0 0 0 0 0 0 0 0 0 0 0 0 0 0 0 0 0 0 0 0 0 0 0
0 0 0 0 0 0 0 0 0 0 0 0 0 0 0 0 0 0 0 0 0 0 0 0 0 0 0 0 0 0 0 0 0 0 0 0 0 0 0 0 0 0 0 0
0 0 0 0 0 0 0 0 0 0 0 0 0 0 0 0 0 0 0 0 0 0 0 0 0 0 0 0 0 0 0 0 0 0 0 0 0 0 0 0 0 0 0 0
0 0 0 0 0 0 0 0 0 0 0 0 0 0 0 0 0 0 0 0 0 0 0 0 0 0 0 0 0 0 0 0 0 0 0 0 0 0 0 0 0 0 0 0
0 0 0 0 0 0 0 0 0 0 0 0 0 0 0 0 0 0 0 0 0 0 0 0 0 0 0 0 0 0 0 0 0 0 0 0 0 0 0 0 0 0 0 0
0 0 0 0 0 0 0 0 0 0 0 0 0 0 0 0 0 0 0 0 0 0 0 0 0 0 0 0 0 0 0 0 0 0 0 0 0 0 0 0 0 0 0 0
0 0 0 0 0 0 0 0 0 0 0 0 0 0 0 0 0 0 0 0 0 0 0 0 0 0 0 0 0 0 0 0 0 0 0 0 0 0 0 0 0 0 0 0
0 0 0 0 0 0 0 0 0 0 0 0 0 0 0 0 0 0 0 0 0 0 0 0 0 0 0 0 0 0 0 0 0 0 0 0 0 0 0 0 0 0 0 0
0 0 0 0 0 0 0 0 0 0 0 0 0 0 0 0 0 0 0 0 0 0 0 0 0 0 0 0 0 0 0 0 0 0 0 0 0 0 0 0 0 0 0 0
0 0 0 0 0 0 0 0 0 0 0 0 0 0 0 0 0 0 0 0 0 0 0 0 0 0 0 0 0 0 0 0 0 0 0 0 0 0 0 0 0 0 0 0
0 0 0 0 0 0 0 0 0 0 0 0 0 0 0 0 0 0 0 0 0 0 0 0 0 0 0 0 0 0 0 0 0 0 0 0 0 0 0 0 0 0 0 0
0 0 0 0 0 0 0 0 0 0 0 0 0 0 0 0 0 0 0 0 0 0 0 0 0 0 0 0 0 0 0 0 0 0 0 0 0 0 0 0 0 0 0 0
0 0 0 0 0 0 0 0 0 0 0 0 0 0 0 0 0 0 0 0 0 0 0 0 0 0 0 0 0 0 0 0 0 0 0 0 0 0 0 0 0 0 0 0
0 0 0 0 0 0 0 0 0 0 0 0 0 0 0 0 0 0 0 0 0 0 0 0 0 0 0 0 0 0 0 0 0 0 0 0 0 0 0 0 0 0 0 0
0 0 0 0 0 0 0 0 0 0 0 0 0 0 0 0 0 0 0 0 0 0 0 0 0 0 0 0 0 0 0 0 0 0 0 0 0 0 0 0 0 0 0 0
0 0 0 0 0 0 0 0 0 0 0 0 0 0 0 0 0 0 0 0 0 0 0 0 0 0 0 0 0 0 0 0 0 0 0 0 0 0 0 0 0 0 0 0
0 0 0 0 0 0 0 0 0 0 0 0 0 0 0 0 0 0 0 0 0 0 0 0 0 0 0 0 0 0 0 0 0 0 0 0 0 0 0 0 0 0 0 0
0 0 0 0 0 0 0 0 0 0 0 0 0 0 0 0 0 0 0 0 0 0 0 0 0 0 0 0 0 0 0 0 0 0 0 0 0 0 0 0 0 0 0 0
0 0 0 0 0 0 0 0 0 0 0 0 0 0 0 0 0 0 0 0 0 0 0 0 0 0 0 0 0 0 0 0 0 0 0 0 0 0 0 0 0 0 0 0
0 0 0 0 0 0 0 -0 0 0 0 0 0 0 0 0 0 0 0 0 0 0 0 0 0 0 0 0 0 0 0 0 0 0 0 0 0 0 0 0 0 0 0 0
Wind_Speed_500mb
6 7 16 24 18 6 11 9 12 4 5 5 12 11 15 8 12 16 16 17 19 22 27 29 33 34 34 33 33 31 28 32 29 27 27 26 26 26 18 11 5 3 7 11
8 15 16 10 11 8 8 9 12 9 5 3 11 19 15 2 8 17 27 27 28 32 34 38 42 46 50 52 52 51 50 45 43 40 41 38 34 31 24 19 14 12 9 8
15 7 21 15 9 12 10 13 9 12 3 5 4 13 8 2 5 14 21 27 30 35 40 43 45 49 52 54 50 51 50 46 44 42 40 38 35 35 29 26 22 21 20 18
11 5 12 8 11 14 11 16 13 10 8 9 2 9 8 6 6 13 27 34 37 38 40 43 43 45 46 47 46 40 38 37 37 33 29 25 26 24 28 25 24 22 22 23
14 15 10 10 14 14 11 11 14 7 7 4 5 1 13 6 12 16 28 34 36 37 37 39 37 37 38 39 37 34 31 31 30 24 21 23 29 34 30 26 22 23 25 24
8 3 12 15 5 11 18 12 12 8 6 4 16 16 8 10 12 8 39 55 51 46 44 41 37 35 32 30 30 26 22 24 22 21 23 25 27 26 20 19 16 18 19 20
2 9 6 9 11 6 2 12 1 3 1 10 5 5 13 7 4 5 38 55 54 53 53 49 44 39 33 24 20 19 16 16 14 10 12 13 11 10 8 7 9 11 14 17
13 11 22 14 15 16 16 13 10 14 8 6 4 12 11 5 4 9 26 60 60 57 51 48 41 34 29 24 19 15 11 8 8 8 10 11 9 7 6 8 10 12 16 20
14 11 0 6 8 13 13 12 8 12 4 5 9 8 6 2 1 5 33 59 68 65 60 54 44 36 30 24 19 13 10 10 12 12 10 8 7 5 5 8 11 13 17 20
14 5 3 6 9 5 9 13 5 4 3 9 7 8 9 13 16 12 25 54 69 65 62 56 50 40 32 28 23 19 18 16 16 15 11 7 3 2 5 9 12 16 19 21
11 8 2 8 14 21 8 7 5 7 8 10 4 10 12 18 19 28 40 67 76 74 68 62 54 46 37 34 30 26 24 23 22 19 16 11 7 3 6 12 18 23 27 30
18 9 9 15 3 3 3 15 14 9 10 5 3 11 1 9 21 43 51 63 69 68 65 61 56 51 49 44 40 32 30 31 29 27 22 15 9 7 11 18 24 28 32 36
19 8 5 8 4 3 11 11 9 11 7 15 9 10 1 8 11 34 46 61 70 66 62 60 57 57 55 54 47 39 38 37 37 32 27 21 16 14 16 22 28 33 37 42
43 12 19 32 12 12 14 14 13 15 9 13 26 18 12 11 16 27 43 53 60 61 60 58 59 58 56 57 54 47 43 43 42 38 33 27 24 23 24 26 30 35 39 44
14 16 10 8 9 13 13 17 27 30 31 20 24 26 15 26 24 47 55 46 52 58 58 55 53 50 52 56 57 53 48 48 46 44 41 35 34 33 31 30 33 37 42 48
3 7 11 10 3 2 8 19 24 29 20 22 10 20 12 32 22 25 34 45 47 57 52 45 44 44 47 49 56 57 53 51 51 48 45 46 46 41 38 38 37 42 48 54
14 11 11 20 6 8 13 24 29 12 11 21 22 33 11 10 18 32 36 44 51 45 41 40 37 36 39 43 47 53 49 49 52 52 53 56 54 50 46 43 41 47 54 59
14 13 4 6 4 15 3 7 2 22 12 9 4 8 21 19 38 31 33 36 38 33 32 32 34 41 40 36 37 38 44 49 52 56 62 62 59 55 51 48 47 52 60 61
2 12 8 10 9 11 6 11 17 17 18 21 24 12 18 18 14 14 24 21 22 23 24 29 35 35 30 29 31 36 41 45 53 59 62 61 60 58 54 52 50 56 60 61
1 3 10 7 10 19 7 3 12 9 10 16 33 15 22 27 5 8 25 25 20 24 28 33 35 34 33 30 27 31 39 45 48 49 49 53 57 58 56 53 51 56 60 64
8 3 18 10 8 10 10 10 24 11 9 18 35 22 43 10 16 19 18 16 14 19 24 32 36 37 35 30 28 34 38 43 42 45 51 54 58 59 57 54 53 59 62 65
14 15 7 6 6 15 23 11 17 11 15 28 27 28 33 28 23 19 13 15 21 29 32 37 40 44 41 33 38 39 43 40 41 48 54 57 60 59 58 56 56 59 64 65
4 8 11 17 10 2 54 7 22 30 38 27 26 30 31 36 35 24 17 18 23 32 38 43 50 43 44 44 44 47 49 49 48 51 57 59 58 58 58 58 59 60 64 65
9 6 4 6 7 6 47 12 33 28 30 22 20 23 36 41 33 29 23 21 26 29 38 43 51 54 51 53 54 55 55 56 54 55 58 59 58 57 58 58 59 63 59 58
6 17 11 2 3 4 23 50 33 37 27 25 26 25 29 33 37 38 39 31 30 31 35 41 44 53 60 57 58 55 56 57 55 57 58 57 56 55 55 56 58 57 56 57
15 11 9 8 30 21 21 51 49 45 43 34 26 26 28 31 36 33 40 39 37 33 35 38 44 50 55 53 49 50 52 53 55 58 57 54 55 55 56 59 57 53 55 55
Wind_Direction_500mb
130 120 208 197 196 124 138 170 216 226 257 174 226 254 262 153 144 158 155 137 121 109 102 101 102 100 100 102 106 106 102 96 96 101 109 114 113 109 117 102 77 318 300 297
57 227 210 129 151 157 139 166 242 292 222 135 275 260 261 135 175 191 172 158 146 126 117 110 107 107 104 100 98 98 95 94 93 90 89 90 94 97 91 83 77 70 62 47
170 215 153 144 155 169 198 198 190 215 37 214 354 278 230 58 105 152 166 160 150 141 136 129 123 115 107 101 95 92 89 86 83 82 83 85 87 91 94 86 79 67 57 49
232 236 160 171 194 153 206 194 176 174 126 234 139 275 289 186 167 179 173 170 164 156 147 138 131 125 118 109 105 96 88 86 86 88 91 89 86 74 79 70 64 60 53 47
233 171 176 185 206 162 229 138 164 141 158 113 230 288 263 154 228 196 191 182 175 165 155 145 137 126 116 111 106 94 86 87 94 96 90 81 74 76 77 69 56 45 39 34
240 205 169 197 119 165 149 81 56 56 108 255 215 183 257 205 212 158 184 187 184 174 166 157 149 139 130 125 113 100 87 79 79 73 64 54 54 55 55 49 34 29 23 22
184 214 192 157 92 54 125 117 50 330 277 228 49 144 247 236 181 183 190 188 184 180 175 169 164 156 147 138 127 115 97 76 69 69 79 81 75 81 73 63 46 37 24 14
169 266 169 188 180 173 190 169 169 207 199 232 47 220 243 153 174 224 196 189 185 185 182 179 173 167 160 160 157 140 131 127 124 144 145 129 120 106 79 63 38 18 11 8
169 269 151 151 150 144 186 203 166 108 42 65 218 275 270 146 196 161 179 187 189 188 187 188 184 181 178 175 178 179 190 188 172 171 163 149 130 106 59 32 17 1 354 349
195 156 221 168 116 41 179 156 99 4 210 260 264 257 228 205 202 180 185 191 194 193 193 192 195 195 192 196 199 207 212 205 198 197 189 180 161 100 24 12 358 354 347 340
152 155 189 127 211 178 150 181 78 135 160 185 229 245 212 192 180 193 201 199 197 195 195 198 201 203 209 212 215 218 219 219 214 212 208 210 221 294 351 350 344 339 335 333
200 140 166 201 293 344 224 189 163 169 213 256 173 244 114 233 201 194 201 199 199 200 200 203 207 211 216 222 224 223 224 225 220 219 219 224 243 288 328 332 331 329 328 328
177 196 90 341 353 342 216 196 138 102 73 197 176 253 181 243 215 213 202 197 197 198 203 207 213 218 225 228 229 231 229 226 224 224 225 229 246 274 298 315 324 326 326 326
167 166 198 225 192 142 191 189 180 168 164 193 228 245 205 214 202 208 209 205 199 202 207 210 216 222 230 234 237 237 233 228 226 228 232 240 253 268 287 303 316 321 320 319
163 217 176 208 192 162 183 179 183 204 216 203 236 228 197 200 201 208 209 199 200 205 213 217 223 227 237 240 239 238 235 230 230 234 239 248 256 265 275 289 300 310 317 319
344 211 157 197 247 197 206 214 189 204 219 240 251 257 204 217 201 191 208 198 202 209 213 222 227 244 243 246 246 241 237 233 233 238 247 250 255 261 268 277 289 302 310 315
155 153 158 223 151 123 258 216 195 180 189 197 210 243 155 191 195 200 200 201 209 216 219 237 235 238 244 249 250 241 238 235 238 243 247 251 255 259 263 271 284 297 305 309
149 148 165 130 157 223 265 358 226 209 209 182 96 200 190 204 218 232 230 225 226 230 224 227 241 242 242 240 236 232 234 236 242 249 252 253 255 258 262 272 282 297 303 305
141 143 148 163 207 333 164 194 161 169 246 183 213 210 175 154 144 221 213 207 209 216 235 242 238 233 226 225 225 228 234 243 251 257 259 259 258 258 264 271 283 294 299 302
168 39 181 155 182 205 245 177 158 117 273 215 203 180 150 145 149 240 188 185 214 231 235 234 227 224 220 214 220 252 258 257 262 269 270 261 259 260 263 270 281 292 301 301
134 90 212 182 219 283 213 186 157 140 241 177 199 190 160 184 204 146 172 205 235 242 241 231 229 230 219 228 269 274 258 261 272 270 265 262 261 261 263 271 282 294 298 299
160 155 181 124 196 257 154 121 174 174 141 159 175 187 198 209 183 202 220 243 246 246 241 236 234 236 232 257 274 266 259 267 273 270 263 261 260 261 266 274 283 292 296 297
245 194 179 189 202 107 174 137 178 153 152 160 173 191 200 202 209 216 233 253 255 254 251 241 234 244 242 265 268 266 265 264 271 269 260 258 260 263 269 275 284 292 293 293
238 167 179 108 204 202 194 180 178 162 160 180 203 215 212 214 220 228 253 273 264 261 258 247 240 242 255 265 270 268 266 261 264 265 260 258 260 266 272 278 286 291 290 288
179 136 146 56 358 208 224 214 192 200 209 214 214 224 227 239 242 253 266 271 274 272 262 249 252 259 261 270 269 265 266 262 266 264 262 261 264 269 274 280 287 288 286 288
179 153 169 200 193 181 203 212 213 218 231 230 223 231 241 243 252 258 267 275 277 266 260 251 257 267 268 264 260 261 262 263 266 265 264 266 269 272 278 284 284 282 284 285
Wind_Speed_850mb
6 7 16 24 18 6 11 9 12 4 5 5 12 11 15 8 12 16 16 17 19 22 27 29 33 34 34 33 33 31 28 32 29 27 27 26 26 26 18 11 5 3 7 11
8 15 16 10 11 8 8 9 12 9 5 3 11 19 15 2 8 17 27 27 28 32 34 38 42 46 50 52 52 51 50 45 43 40 41 38 34 31 24 19 14 12 9 8
15 7 21 15 9 12 10 13 9 12 3 5 4 13 8 2 5 14 21 27 30 35 40 43 45 49 52 54 50 51 50 46 44 42 40 38 35 35 29 26 22 21 20 18
11 5 12 8 11 14 11 16 13 10 8 9 2 9 8 6 6 13 27 34 37 38 40 43 43 45 46 47 46 40 38 37 37 33 29 25 26 24 28 25 24 22 22 23
14 15 10 10 14 14 11 11 14 7 7 4 5 1 13 6 12 16 28 34 36 37 37 39 37 37 38 39 37 34 31 31 30 24 21 23 29 34 30 26 22 23 25 24
8 3 12 15 5 11 18 12 12 8 6 4 16 16 8 10 12 8 39 55 51 46 44 41 37 35 32 30 30 26 22 24 22 21 23 25 27 26 20 19 16 18 19 20
2 9 6 9 11 6 2 12 1 3 1 10 5 5 13 7 4 5 38 55 54 53 53 49 44 39 33 24 20 19 16 16 14 10 12 13 11 10 8 7 9 11 14 17
13 11 22 14 15 16 16 13 10 14 8 6 4 12 11 5 4 9 26 60 60 57 51 48 41 34 29 24 19 15 11 8 8 8 10 11 9 7 6 8 10 12 16 20
14 11 0 6 8 13 13 12 8 12 4 5 9 8 6 2 1 5 33 59 68 65 60 54 44 36 30 24 19 13 10 10 12 12 10 8 7 5 5 8 11 13 17 20
14 5 3 6 9 5 9 13 5 4 3 9 7 8 9 13 16 12 25 54 69 65 62 56 50 40 32 28 23 19 18 16 16 15 11 7 3 2 5 9 12 16 19 21
11 8 2 8 14 21 8 7 5 7 8 10 4 10 12 18 19 28 40 67 76 74 68 62 54 46 37 34 30 26 24 23 22 19 16 11 7 3 6 12 18 23 27 30
18 9 9 15 3 3 3 15 14 9 10 5 3 11 1 9 21 43 51 63 69 68 65 61 56 51 49 44 40 32 30 31 29 27 22 15 9 7 11 18 24 28 32 36
19 8 5 8 4 3 11 11 9 11 7 15 9 10 1 8 11 34 46 61 70 66 62 60 57 57 55 54 47 39 38 37 37 32 27 21 16 14 16 22 28 33 37 42
43 12 19 32 12 12 14 14 13 15 9 13 26 18 12 11 16 27 43 53 60 61 60 58 59 58 56 57 54 47 43 43 42 38 33 27 24 23 24 26 30 35 39 44
14 16 10 8 9 13 13 17 27 30 31 20 24 26 15 26 24 47 55 46 52 58 58 55 53 50 52 56 57 53 48 48 46 44 41 35 34 33 31 30 33 37 42 48
3 7 11 10 3 2 8 19 24 29 20 22 10 20 12 32 22 25 34 45 47 57 52 45 44 44 47 49 56 57 53 51 51 48 45 46 46 41 38 38 37 42 48 54
14 11 11 20 6 8 13 24 29 12 11 21 22 33 11 10 18 32 36 44 51 45 41 40 37 36 39 43 47 53 49 49 52 52 53 56 54 50 46 43 41 47 54 59
14 13 4 6 4 15 3 7 2 22 12 9 4 8 21 19 38 31 33 36 38 33 32 32 34 41 40 36 37 38 44 49 52 56 62 62 59 55 51 48 47 52 60 61
2 12 8 10 9 11 6 11 17 17 18 21 24 12 18 18 14 14 24 21 22 23 24 29 35 35 30 29 31 36 41 45 53 59 62 61 60 58 54 52 50 56 60 61
1 3 10 7 10 19 7 3 12 9 10 16 33 15 22 27 5 8 25 25 20 24 28 33 35 34 33 30 27 31 39 45 48 49 49 53 57 58 56 53 51 56 60 64
8 3 18 10 8 10 10 10 24 11 9 18 35 22 43 10 16 19 18 16 14 19 24 32 36 37 35 30 28 34 38 43 42 45 51 54 58 59 57 54 53 59 62 65
14 15 7 6 6 15 23 11 17 11 15 28 27 28 33 28 23 19 13 15 21 29 32 37 40 44 41 33 38 39 43 40 41 48 54 57 60 59 58 56 56 59 64 65
4 8 11 17 10 2 54 7 22 30 38 27 26 30 31 36 35 24 17 18 23 32 38 43 50 43 44 44 44 47 49 49 48 51 57 59 58 58 58 58 59 60 64 65
9 6 4 6 7 6 47 12 33 28 30 22 20 23 36 41 33 29 23 21 26 29 38 43 51 54 51 53 54 55 55 56 54 55 58 59 58 57 58 58 59 63 59 58
6 17 11 2 3 4 23 50 33 37 27 25 26 25 29 33 37 38 39 31 30 31 35 41 44 53 60 57 58 55 56 57 55 57 58 57 56 55 55 56 58 57 56 57
15 11 9 8 30 21 21 51 49 45 43 34 26 26 28 31 36 33 40 39 37 33 35 38 44 50 55 53 49 50 52 53 55 58 57 54 55 55 56 59 57 53 55 55
Wind_Direction_850mb
130 120 208 197 196 124 138 170 216 226 257 174 226 254 262 153 144 158 155 137 121 109 102 101 102 100 100 102 106 106 102 96 96 101 109 114 113 109 117 102 77 318 300 297
57 227 210 129 151 157 139 166 242 292 222 135 275 260 261 135 175 191 172 158 146 126 117 110 107 107 104 100 98 98 95 94 93 90 89 90 94 97 91 83 77 70 62 47
170 215 153 144 155 169 198 198 190 215 37 214 354 278 230 58 105 152 166 160 150 141 136 129 123 115 107 101 95 92 89 86 83 82 83 85 87 91 94 86 79 67 57 49
232 236 160 171 194 153 206 194 176 174 126 234 139 275 289 186 167 179 173 170 164 156 147 138 131 125 118 109 105 96 88 86 86 88 91 89 86 74 79 70 64 60 53 47
233 171 176 185 206 162 229 138 164 141 158 113 230 288 263 154 228 196 191 182 175 165 155 145 137 126 116 111 106 94 86 87 94 96 90 81 74 76 77 69 56 45 39 34
240 205 169 197 119 165 149 81 56 56 108 255 215 183 257 205 212 158 184 187 184 174 166 157 149 139 130 125 113 100 87 79 79 73 64 54 54 55 55 49 34 29 23 22
184 214 192 157 92 54 125 117 50 330 277 228 49 144 247 236 181 183 190 188 184 180 175 169 164 156 147 138 127 115 97 76 69 69 79 81 75 81 73 63 46 37 24 14
169 266 169 188 180 173 190 169 169 207 199 232 47 220 243 153 174 224 196 189 185 185 182 179 173 167 160 160 157 140 131 127 124 144 145 129 120 106 79 63 38 18 11 8
169 269 151 151 150 144 186 203 166 108 42 65 218 275 270 146 196 161 179 187 189 188 187 188 184 181 178 175 178 179 190 188 172 171 163 149 130 106 59 32 17 1 354 349
195 156 221 168 116 41 179 156 99 4 210 260 264 257 228 205 202 180 185 191 194 193 193 192 195 195 192 196 199 207 212 205 198 197 189 180 161 100 24 12 358 354 347 340
152 155 189 127 211 178 150 181 78 135 160 185 229 245 212 192 180 193 201 199 197 195 195 198 201 203 209 212 215 218 219 219 214 212 208 210 221 294 351 350 344 339 335 333
200 140 166 201 293 344 224 189 163 169 213 256 173 244 114 233 201 194 201 199 199 200 200 203 207 211 216 222 224 223 224 225 220 219 219 224 243 288 328 332 331 329 328 328
177 196 90 341 353 342 216 196 138 102 73 197 176 253 181 243 215 213 202 197 197 198 203 207 213 218 225 228 229 231 229 226 224 224 225 229 246 274 298 315 324 326 326 326
167 166 198 225 192 142 191 189 180 168 164 193 228 245 205 214 202 208 209 205 199 202 207 210 216 222 230 234 237 237 233 228 226 228 232 240 253 268 287 303 316 321 320 319
163 217 176 208 192 162 183 179 183 204 216 203 236 228 197 200 201 208 209 199 200 205 213 217 223 227 237 240 239 238 235 230 230 234 239 248 256 265 275 289 300 310 317 319
344 211 157 197 247 197 206 214 189 204 219 240 251 257 204 217 201 191 208 198 202 209 213 222 227 244 243 246 246 241 237 233 233 238 247 250 255 261 268 277 289 302 310 315
155 153 158 223 151 123 258 216 195 180 189 197 210 243 155 191 195 200 200 201 209 216 219 237 235 238 244 249 250 241 238 235 238 243 247 251 255 259 263 271 284 297 305 309
149 148 165 130 157 223 265 358 226 209 209 182 96 200 190 204 218 232 230 225 226 230 224 227 241 242 242 240 236 232 234 236 242 249 252 253 255 258 262 272 282 297 303 305
141 143 148 163 207 333 164 194 161 169 246 183 213 210 175 154 144 221 213 207 209 216 235 242 238 233 226 225 225 228 234 243 251 257 259 259 258 258 264 271 283 294 299 302
168 39 181 155 182 205 245 177 158 117 273 215 203 180 150 145 149 240 188 185 214 231 235 234 227 224 220 214 220 252 258 257 262 269 270 261 259 260 263 270 281 292 301 301
134 90 212 182 219 283 213 186 157 140 241 177 199 190 160 184 204 146 172 205 235 242 241 231 229 230 219 228 269 274 258 261 272 270 265 262 261 261 263 271 282 294 298 299
160 155 181 124 196 257 154 121 174 174 141 159 175 187 198 209 183 202 220 243 246 246 241 236 234 236 232 257 274 266 259 267 273 270 263 261 260 261 266 274 283 292 296 297
245 194 179 189 202 107 174 137 178 153 152 160 173 191 200 202 209 216 233 253 255 254 251 241 234 244 242 265 268 266 265 264 271 269 260 258 260 263 269 275 284 292 293 293
238 167 179 108 204 202 194 180 178 162 160 180 203 215 212 214 220 228 253 273 264 261 258 247 240 242 255 265 270 268 266 261 264 265 260 258 260 266 272 278 286 291 290 288
179 136 146 56 358 208 224 214 192 200 209 214 214 224 227 239 242 253 266 271 274 272 262 249 252 259 261 270 269 265 266 262 266 264 262 261 264 269 274 280 287 288 286 288
179 153 169 200 193 181 203 212 213 218 231 230 223 231 241 243 252 258 267 275 277 266 260 251 257 267 268 264 260 261 262 263 266 265 264 266 269 272 278 284 284 282 284 285